Location: Sungai Bunut
(2.6333°N, 113.7333°E)
Time: 10:09:04
(UTC+00:00)

Cosmos 1275 Rocket - Visible Passes

Search period start: 17 August 2022 00:00
Search period end: 27 August 2022 00:00
Orbit: 821 x 838 km, 83.0° (Epoch: 16 August)

Date Brightness Start Highest point End Pass type
(mag) Time Alt. Az. Time Alt. Az. Time Alt. Az.
17 Aug 7.1 12:03:56 10° NW 12:08:21 25° W 12:12:47 10° SW visible
18 Aug 6.6 11:45:13 10° NNW 11:50:07 33° W 11:55:03 10° SSW visible
19 Aug 6.1 11:26:39 10° NNW 11:31:54 45° W 11:37:10 10° SSW visible
20 Aug 5.5 11:08:14 10° NNW 11:13:40 61° W 11:19:08 10° S visible
21 Aug 5.0 10:49:54 10° N 10:55:26 83° W 11:00:59 10° S visible
21 Aug 7.7 21:52:56 10° SE 21:56:52 20° E 22:00:48 10° NE visible
22 Aug 7.9 21:35:41 10° SE 21:38:39 15° E 21:41:36 10° ENE visible
23 Aug 8.4 21:19:39 10° E 21:20:25 10° E 21:21:11 10° E visible
24 Aug 8.0 11:40:25 10° WNW 11:42:38 12° W 11:44:51 10° WSW visible
25 Aug 7.8 11:20:53 10° NW 11:24:24 17° W 11:27:56 10° SW visible
26 Aug 7.6 11:01:51 10° NW 11:06:10 23° W 11:10:29 10° SW visible
26 Aug 5.2 22:02:08 10° S 22:07:35 73° E 22:13:02 10° N visible
